Date,TemperatureHighF,TemperatureAvgF,TemperatureLowF,DewpointHighF,DewpointAvgF,DewpointLowF,HumidityHigh,HumidityAvg,HumidityLow,PressureMaxIn,PressureMinIn,WindSpeedMaxMPH,WindSpeedAvgMPH,GustSpeedMaxMPH,PrecipitationSumIn
2013-6-1,68,57,43,46,41,38,85,57,34,30.22,30.02,17,5,24,0.00
2013-6-2,79,64,47,51,44,38,82,52,24,30.02,29.57,19,5,22,0.00
2013-6-3,69,57,46,51,38,31,84,52,27,29.98,29.63,34,15,39,0.00
2013-6-4,56,48,42,39,37,35,78,65,51,30.21,29.98,20,6,22,0.00
2013-6-5,71,56,36,42,37,32,89,54,28,30.20,29.98,15,3,15,0.00
2013-6-6,81,65,49,49,43,37,67,47,27,30.04,29.97,15,4,17,0.00
2013-6-7,86,68,50,51,47,43,83,51,24,29.99,29.67,29,5,31,0.00
2013-6-8,79,68,57,51,42,36,68,40,22,29.91,29.72,30,10,36,0.00
2013-6-9,89,70,50,47,43,40,77,42,20,29.94,29.66,24,8,25,0.00
2013-6-10,84,70,57,52,46,40,64,44,26,29.83,29.69,27,7,36,0.00
2013-6-11,79,66,52,57,50,45,83,59,34,29.98,29.72,33,6,44,0.00
2013-6-12,76,63,50,56,50,46,90,65,42,30.06,29.91,18,5,21,0.00
2013-6-13,87,67,52,58,49,43,83,56,22,29.94,29.68,36,8,40,0.06
2013-6-14,69,59,44,47,38,27,90,51,21,30.05,29.87,32,11,36,0.00
2013-6-15,79,63,44,41,34,29,67,36,17,30.06,29.90,24,6,24,0.00
2013-6-16,82,66,50,50,42,34,64,44,22,30.07,29.97,20,5,23,0.00
2013-6-17,84,70,55,52,47,39,72,47,25,30.11,29.94,12,4,15,0.00
2013-6-18,89,71,54,54,46,41,74,45,21,29.97,29.73,50,8,50,0.00
2013-6-19,92,72,53,53,41,31,72,37,13,29.75,29.42,41,12,41,0.00
2013-6-20,75,64,53,37,30,23,42,28,17,29.91,29.71,29,11,32,0.00
2013-6-21,74,62,51,47,41,33,63,46,30,29.95,29.89,22,8,25,0.00
2013-6-22,70,57,48,52,46,40,88,67,46,29.98,29.84,28,6,32,0.03
2013-6-23,80,62,43,48,41,36,86,52,21,29.97,29.69,24,7,25,0.00
2013-6-24,85,69,53,51,44,38,69,44,20,29.71,29.56,29,5,33,0.00
2013-6-25,82,72,65,47,44,40,48,36,23,29.88,29.64,29,11,29,0.00
2013-6-26,87,74,62,54,48,44,57,40,23,30.07,29.86,18,6,23,0.00
2013-6-27,92,74,56,57,51,47,79,48,24,30.19,30.08,21,6,22,0.00
2013-6-28,90,77,62,58,53,49,68,46,28,30.25,30.13,18,5,18,0.00
2013-6-29,92,75,59,59,54,50,78,52,25,30.19,30.02,24,5,28,0.00
2013-6-30,92,74,56,60,55,51,88,56,29,30.15,30.05,18,4,20,0.00